Regional Weather Roundup
Issued by NWS Charleston, SC

Current Version | Previous Version | Text Only | Print | Product List | Glossary Off
Versions: 1 2 3 4 5 6 7 8 9 10 11 12 13 14 15 16 17 18 19 20 21 22 23 24 25 26 27 28 29 30 31 32 33 34 35 36 37 38 39 40 41 42 43 44 45 46 47 48 49 50
000 ASUS42 KCHS 290211 RWRCHS REGIONAL WEATHER ROUNDUP NATIONAL WEATHER SERVICE CHARLESTON SC 900 PM EST WED JAN 28 2015 NOTE: "FAIR" INDICATES FEW OR NO CLOUDS BELOW 12,000 FEET WITH NO SIGNIFICANT WEATHER AND/OR OBSTRUCTIONS TO VISIBILITY. NOT ALL STATIONS ARE QUALITY CONTROLLED BY THE NATIONAL WEATHER SERVICE. USE DATA WITH CAUTION...ESPECIALLY DEWPOINT OBSERVATIONS. SCZ027-030-031-034>040-042>050-290300- ...SOUTHEAST SOUTH CAROLINA... CITY SKY/WX TMP DP RH WIND PRES REMARKS N CHARLESTON CLEAR 34 25 69 CALM 30.34R WATERFRONT PRK N/A 43 N/A N/A CALM N/A MOUNT PLEASANT LGT RAIN N/A N/A N/A CALM 30.32S PINOPOLIS NOT AVBL MONCKS CORNER FAIR 34 30 86 CALM 30.34R SUMMERVILLE NOT AVBL BEAUFORT MCAS CLEAR 36 30 79 CALM 30.33R BEAUFORT ARPT FAIR 36 32 87 CALM 30.33R HILTON HEAD IS CLEAR 37 30 75 N5 30.34R WCI 34 WALTERBORO CLEAR 32 25 74 CALM 30.34R ALLENDALE FAIR 36 27 69 CALM 30.32R ...SOUTHERN MIDLANDS AND PEE DEE... CITY SKY/WX TMP DP RH WIND PRES REMARKS GEORGETOWN NOT AVBL KINGSTREE NOT AVBL ORANGEBURG CLEAR 34 24 67 CALM 30.33R BARNWELL FAIR 34 28 80 CALM 30.32S AIKEN FAIR 32 27 80 CALM 30.33S MANNING FAIR 32 28 86 CALM 30.33R COLUMBIA CLEAR 34 25 69 CALM 30.31R SUMTER CLEAR 33 24 70 CALM 30.31R FLORENCE CLEAR 33 24 69 CALM 30.32R MYRTLE BEACH CLEAR 36 21 55 CALM 30.35R N MYRTLE BEACH CLEAR 32 25 75 CALM 30.33R $$ GAZ063-065-086>088-099>101-113>116-118-119-134>141-150-290300- ...SOUTHEAST GEORGIA... CITY SKY/WX TMP DP RH WIND PRES REMARKS SAVANNAH ARPT CLEAR 36 28 73 CALM 30.33R HUNTER AAF CLEAR 38 25 60 CALM 30.30R FORT STEWART CLEAR 34 28 76 CALM 30.31R STATESBORO CLEAR 31 30 95 CALM 30.31S SYLVANIA CLEAR 33 30 86 CALM 30.32S CLAXTON FAIR 32 32 100 CALM 30.32R ...CSRA...CENTRAL AND FAR SOUTHEAST GEORGIA... CITY SKY/WX TMP DP RH WIND PRES REMARKS THOMSON CLEAR 35 30 83 CALM 30.34R AUGUSTA-BUSH CLEAR 32 23 69 CALM 30.31R AUGUSTA-DANIEL CLEAR 44 21 40 E5 30.30S SWAINSBORO FAIR 37 25 60 CALM 30.31S VIDALIA CLEAR 37 32 81 CALM 30.30S EASTMAN FAIR 35 35 100 CALM 30.32R HAZLEHURST FAIR 40 33 76 E3 30.29S ALMA CLEAR 34 32 92 CALM 30.30R WAYCROSS CLEAR 41 37 86 CALM 30.30S JESUP FAIR 37 34 87 CALM 30.32R BAXLEY FAIR 37 34 87 CALM 30.30S BRUNSWICK CLEAR 37 32 81 CALM 30.32S SAINT SIMONS CLEAR 43 32 65 NE6 30.31R $$ SCZ027-028-034-036>038-045-046-048>050-GAZ119-141-290300- ...LAKE AND SUPPLEMENTAL COASTAL OBSERVATIONS... STATION/POSITION TIME TEMP WIND PRES WAVE SWELL AIR SEA DIR/SP/G HT/PER HT/PER/DIR (UTC) (F) (DEG/KT/KT) (MB) (FT/S) (FT/S/D) UPR LAKE MARION NOT AVBL WINYAH BAY NOT AVBL LAKE MURRAY 0100 41 CALM / 1 1025.4R ACE BASIN NERRS NOT AVBL FORT PULASKI 0100 47 52 40/ 7/ 8 1026.8R SAPELO ISLAND 0100 43 70/ 5 1026.0R $$ ANZ835-935-AMZ111-154-330-350-352-354-370-450-454-472-290300- ...C-MAN AND BUOY OBSERVATIONS... STATION/POSITION TIME TEMP WIND PRES WAVE SWELL AIR SEA DIR/SP/G HT/PER HT/PER/DIR (UTC) (F) (DEG/KT/KT) (MB) (FT/S) (FT/S/D) BUOY 41004 0150 49 66 10/ 12/ 17 1026.1R 4/ 7 3/ 7 BUOY 41008 0150 49 53 40/ 12/ 14 1026.3R 3/ 7 2/ 70/ 7 FOLLY BEACH CMAN 0100 42 310/ 3/ 3 1027.0R CAPERS NEARSHORE 0100 45 350/ 8/ 8 N/A FRIPP NEARSHORE 0100 47 30/ 8/ 10 1025.9R STATION/POSITION TIME TEMP WIND PRES WAVE SWELL AIR SEA DIR/SP/G HT/PER HT/PER/DIR (UTC) (F) (DEG/KT/KT) (MB) (FT/S) (FT/S/D) 5E ST. MARYS GA NOT AVBL FRYING PAN BUOY 0150 46 63 350/ 16/ 19 1027.0R 4/ 5 2/120/ 9 BUOY 41025 0150 41 340/ 19/ 23 1024.8R 5/10 3/ 50/10 CAPE LOOKOUT NC 0100 40 340/ 11/ 13 1025.5R BUOY 41002 0150 56 72 350/ 21/ 25 1022.2R 11/ 8 5/ 20/12 BUOY 41010 0120 60 76 350/ 19/ 27 1023.3R ST AUGUSTINE FL 0200 51 30/ 14/ 16 1026.1F $$

USA.gov is the U.S. government's official web portal to all federal, state and local government web resources and services.